Location: Crocus Hill
(18.2167°N, 63.0667°W)
Time: 04:43:08
(UTC+00:00)

BREEZE M DEB (TANK) - Pass Details

Date: 26 January 2020
Orbit: 301 x 11889 km, 49.5° (Epoch: 16 February)

Event Time Altitude Azimuth Distance (km) Brightness Sun altitude
Exits shadow 08:48:32 50° 265° (W) 1,876 4.5 -27.8°
Maximum altitude 08:50:53 65° 320° (NW) 2,043 4.8 -27.3°
Drops below altitude 10° 09:18:09 10° 40° (NE) 10,163 9.0 -21.0°
Sets 09:33:27 0° 45° (NE) 13,553 9.8 -17.5°
